Fesco Vladimir — 5BSL2 — position and weather

sailwx.info

Track history (hours):
 
Tides and Currents Weather Stations Pressure Air Temp Water Temp Dewpoint Dewpoint Depression Visibility Wind Speed Wind Dir Waves Ship Positions

Fesco Vladimir

Last reported at 2014-Nov-28 22:18 UTC. Time now 2014-Nov-28 22:54 UTC.
Position N 59°53' E 030°12'.

Length 184 m; draft 8.9 m.

Type: Cargo ship. MMSI: 209777000.

Date/timePositionNaut miles runAvg speedWind from/ knotsBaromVisibWave heightAir tempDewpointWater temp
2014-Nov-28 22:18N 59°53' E 030°12'0 0.0
2014-Nov-28 21:33N 59°53' E 030°12'0 0.0
2014-Nov-28 20:33N 59°53' E 030°12'0 0.0
2014-Nov-28 19:33N 59°53' E 030°12'0 0.0
2014-Nov-28 18:18N 59°53' E 030°12'0 0.0
2014-Nov-28 16:24N 59°53' E 030°12'0 0.0
2014-Nov-28 15:27N 59°53' E 030°12'0 0.0
2014-Nov-28 14:33N 59°53' E 030°12'0 0.0
2014-Nov-28 13:21N 59°53' E 030°12'0 0.0
2014-Nov-28 12:15N 59°53' E 030°12'0 0.0
2014-Nov-28 08:33N 59°53' E 030°12'0 0.0
2014-Nov-28 07:33N 59°53' E 030°12'0 0.0
2014-Nov-28 06:21N 59°53' E 030°12'0 0.1
2014-Nov-28 05:33N 59°53' E 030°12'88 9.6
2014-Nov-27 20:23N 60°02' E 027°18'1113.0
2014-Nov-27 19:33N 59°58' E 026°58'1414.2
2014-Nov-27 18:33N 59°58' E 026°30'54 3.7
2014-Nov-27 04:12N 59°31' E 024°58'711.2
2014-Nov-27 03:33N 59°37' E 024°49'10 9.9
2014-Nov-27 02:33N 59°39' E 024°30'10 9.8
2014-Nov-27 01:33N 59°40' E 024°10'9 8.6
2014-Nov-27 00:29N 59°37' E 023°53'9 9.3
2014-Nov-26 23:33N 59°35' E 023°37'345 9.6
2014-Nov-25 11:33N 55°41' E 015°42'8 8.3
2014-Nov-25 10:33N 55°37' E 015°29'8 8.3
2014-Nov-25 09:33N 55°33' E 015°16'8 8.3
2014-Nov-25 08:33N 55°30' E 015°03'1110.5
2014-Nov-25 07:33N 55°25' E 014°46'1313.2
2014-Nov-25 06:33N 55°16' E 014°29'1313.5
2014-Nov-25 05:33N 55°05' E 014°15'6913.7
2014-Nov-25 00:33N 54°38' E 012°25'1414.3
2014-Nov-24 23:33N 54°26' E 012°12'1414.2
2014-Nov-24 22:33N 54°25' E 011°48'3715.1
2014-Nov-24 20:07N 54°42' E 010°52'15912.7
2014-Nov-24 07:33N 57°20' E 011°29'1413.7
2014-Nov-24 06:33N 57°31' E 011°16'1515.0
2014-Nov-24 05:33N 57°41' E 010°55'1313.4
2014-Nov-24 04:33N 57°48' E 010°33'16514.8
2014-Nov-23 17:23N 55°48' E 007°04'1315.6
2014-Nov-23 16:32N 55°36' E 006°55'1515.1
2014-Nov-23 15:33N 55°22' E 006°49'1615.7
2014-Nov-23 14:33N 55°07' E 006°57'1615.7
2014-Nov-23 13:33N 54°52' E 007°04'1616.0
2014-Nov-23 12:34N 54°36' E 007°12'1615.7
2014-Nov-23 11:33N 54°23' E 007°26'1615.7
2014-Nov-23 10:33N 54°10' E 007°42'1514.8
2014-Nov-23 09:33N 54°02' E 008°02'1312.5
2014-Nov-23 08:33N 53°59' E 008°23'1313.4
2014-Nov-23 07:33N 53°53' E 008°43'1514.9
2014-Nov-23 06:33N 53°53' E 009°08'1515.2
2014-Nov-23 05:33N 53°43' E 009°28'1414.3
2014-Nov-23 04:33N 53°34' E 009°46'5 5.1
2014-Nov-23 03:28N 53°32' E 009°55'0 0.0
2014-Nov-23 02:31N 53°32' E 009°55'0 0.0
2014-Nov-23 01:31N 53°32' E 009°55'0 0.0
2014-Nov-23 00:31N 53°32' E 009°55'0 0.0
2014-Nov-22 23:31N 53°32' E 009°55'0 0.0
2014-Nov-22 22:28N 53°32' E 009°55'0 0.0
2014-Nov-22 21:28N 53°32' E 009°55'0 0.0
2014-Nov-22 20:28N 53°32' E 009°55'0 0.0
2014-Nov-22 19:31N 53°32' E 009°55'0 0.0
2014-Nov-22 18:31N 53°32' E 009°55'0 0.0
2014-Nov-22 17:31N 53°32' E 009°55'0 0.0
2014-Nov-22 16:31N 53°32' E 009°55'0 0.0
2014-Nov-22 15:31N 53°32' E 009°55'0 0.0
2014-Nov-22 14:31N 53°32' E 009°55'0 0.0
2014-Nov-22 13:31N 53°32' E 009°55'0 0.0
2014-Nov-22 12:28N 53°32' E 009°55'0 0.1
2014-Nov-22 11:34N 53°32' E 009°55'9 8.6
2014-Nov-22 10:34N 53°34' E 009°41'1514.5
2014-Nov-22 09:33N 53°45' E 009°25'1313.0
2014-Nov-22 08:33N 53°53' E 009°07'1313.2
2014-Nov-22 07:33N 53°51' E 008°45'1313.1
2014-Nov-22 06:33N 53°59' E 008°27'1413.8
2014-Nov-22 05:34N 54°00' E 008°03'4 3.9
2014-Nov-22 04:33N 54°02' E 008°09'0 0.0
2014-Nov-22 03:33N 54°02' E 008°09'0 0.0
2014-Nov-22 02:33N 54°02' E 008°09'0 0.0
2014-Nov-22 01:33N 54°02' E 008°09'0 0.0
2014-Nov-22 00:33N 54°02' E 008°09'0 0.0
2014-Nov-21 23:33N 54°02' E 008°09'0 0.0
2014-Nov-21 22:33N 54°02' E 008°09'0 0.1
2014-Nov-21 21:33N 54°02' E 008°09'0 0.1
2014-Nov-21 20:33N 54°02' E 008°09'0 0.0
2014-Nov-21 19:33N 54°02' E 008°09'2 1.6
2014-Nov-21 18:33N 54°02' E 008°07'1110.7
2014-Nov-21 17:33N 53°59' E 008°24'9 9.3
2014-Nov-21 16:33N 53°56' E 008°39'1111.2
2014-Nov-21 15:34N 53°59' E 008°21'8 8.0
2014-Nov-21 14:33N 54°02' E 008°08'0 0.4
2014-Nov-21 13:33N 54°02' E 008°09'0 0.0
2014-Nov-21 12:33N 54°02' E 008°09'1 0.8
2014-Nov-21 11:33N 54°02' E 008°07'9 9.0
2014-Nov-21 10:33N 53°58' E 007°54'1313.0
2014-Nov-21 09:33N 53°55' E 007°32'1313.3
2014-Nov-21 08:32N 53°52' E 007°10'1615.4
2014-Nov-21 07:30N 53°48' E 006°44'1516.0
2014-Nov-21 06:33N 53°44' E 006°19'1616.0
2014-Nov-21 05:34N 53°39' E 005°54'1616.2
2014-Nov-21 04:34N 53°34' E 005°28'1616.2
2014-Nov-21 03:33N 53°28' E 005°02'1615.9
2014-Nov-21 02:34N 53°20' E 004°39'1716.5
2014-Nov-21 01:34N 53°06' E 004°25'1616.1
2014-Nov-21 00:33N 52°52' E 004°13'1615.5
2014-Nov-20 23:34N 52°38' E 004°01'1514.9
2014-Nov-20 22:34N 52°24' E 003°53'1514.8
2014-Nov-20 21:34N 52°09' E 003°54'1010.3
2014-Nov-20 20:34N 51°60' E 004°02'3 2.5
2014-Nov-20 19:31N 51°58' E 004°03'0 0.0
2014-Nov-20 18:32N 51°58' E 004°03'0 0.0
2014-Nov-20 17:28N 51°58' E 004°03'0 0.0
2014-Nov-20 16:31N 51°58' E 004°03'0 0.0
2014-Nov-20 15:31N 51°58' E 004°03'0 0.0
2014-Nov-20 14:31N 51°58' E 004°03'0 0.0
2014-Nov-20 13:31N 51°58' E 004°03'0 0.0
2014-Nov-20 12:34N 51°58' E 004°03'0 0.2
2014-Nov-20 11:31N 51°58' E 004°03'0 0.0
2014-Nov-20 10:28N 51°58' E 004°03'0 0.0
2014-Nov-20 09:31N 51°58' E 004°03'0 0.0
2014-Nov-20 08:31N 51°58' E 004°03'0 0.0
2014-Nov-20 07:31N 51°58' E 004°03'0 0.0
2014-Nov-20 06:31N 51°58' E 004°03'0 0.0
2014-Nov-20 05:31N 51°58' E 004°03'0 0.0
2014-Nov-20 04:31N 51°58' E 004°03'0 0.0
2014-Nov-20 03:31N 51°58' E 004°03'0 0.0
2014-Nov-20 02:28N 51°58' E 004°03'0 0.0
2014-Nov-20 01:31N 51°58' E 004°03'0 0.0
2014-Nov-20 00:31N 51°58' E 004°03'0 0.0
2014-Nov-19 23:31N 51°58' E 004°03'0 0.0
2014-Nov-19 22:31N 51°58' E 004°03'0 0.0
2014-Nov-19 21:31N 51°58' E 004°03'0 0.0
2014-Nov-19 20:31N 51°58' E 004°03'0 0.0
2014-Nov-19 19:31N 51°58' E 004°03'0 0.0
2014-Nov-19 18:31N 51°58' E 004°03'0 0.0
2014-Nov-19 17:31N 51°58' E 004°03'0 0.0
2014-Nov-19 16:31N 51°58' E 004°03'0 0.0
2014-Nov-19 15:28N 51°58' E 004°03'0 0.0
2014-Nov-19 14:31N 51°58' E 004°03'0 0.0
2014-Nov-19 13:28N 51°58' E 004°03'0 0.0
2014-Nov-19 12:31N 51°58' E 004°03'0 0.0
2014-Nov-19 11:31N 51°58' E 004°03'0 0.0
2014-Nov-19 10:31N 51°58' E 004°03'0 0.0
2014-Nov-19 09:31N 51°58' E 004°03'0 0.0
2014-Nov-19 08:31N 51°58' E 004°03'0 0.0
2014-Nov-19 07:19N 51°58' E 004°03'0 0.0
2014-Nov-19 06:31N 51°58' E 004°03'0 0.0
2014-Nov-19 05:31N 51°58' E 004°03'0 0.0
2014-Nov-19 04:31N 51°58' E 004°03'0 0.0
2014-Nov-19 03:31N 51°58' E 004°03'0 0.0
2014-Nov-19 02:31N 51°58' E 004°03'0 0.0
2014-Nov-19 01:31N 51°58' E 004°03'0 0.0
2014-Nov-19 00:31N 51°58' E 004°03'0 0.0
2014-Nov-18 23:31N 51°58' E 004°03'0 0.0
2014-Nov-18 22:31N 51°58' E 004°03'  
Track history (hours):
 
Tides and Currents Weather Stations Pressure Air Temp Water Temp Dewpoint Dewpoint Depression Visibility Wind Speed Wind Dir Waves Ship Positions

Fesco Vladimir

Last reported at 2014-Nov-28 22:18 UTC. Time now 2014-Nov-28 22:54 UTC.
Position N 59°53' E 030°12'.

Length 184 m; draft 8.9 m.

Type: Cargo ship. MMSI: 209777000.

Date/timePositionNaut miles runAvg speedWind from/ knotsBaromVisibWave heightAir tempDewpointWater temp
2014-Nov-28 22:18N 59°53' E 030°12'0 0.0
2014-Nov-28 21:33N 59°53' E 030°12'0 0.0
2014-Nov-28 20:33N 59°53' E 030°12'0 0.0
2014-Nov-28 19:33N 59°53' E 030°12'0 0.0
2014-Nov-28 18:18N 59°53' E 030°12'0 0.0
2014-Nov-28 16:24N 59°53' E 030°12'0 0.0
2014-Nov-28 15:27N 59°53' E 030°12'0 0.0
2014-Nov-28 14:33N 59°53' E 030°12'0 0.0
2014-Nov-28 13:21N 59°53' E 030°12'0 0.0
2014-Nov-28 12:15N 59°53' E 030°12'0 0.0
2014-Nov-28 08:33N 59°53' E 030°12'0 0.0
2014-Nov-28 07:33N 59°53' E 030°12'0 0.0
2014-Nov-28 06:21N 59°53' E 030°12'0 0.1
2014-Nov-28 05:33N 59°53' E 030°12'88 9.6
2014-Nov-27 20:23N 60°02' E 027°18'1113.0
2014-Nov-27 19:33N 59°58' E 026°58'1414.2
2014-Nov-27 18:33N 59°58' E 026°30'54 3.7
2014-Nov-27 04:12N 59°31' E 024°58'711.2
2014-Nov-27 03:33N 59°37' E 024°49'10 9.9
2014-Nov-27 02:33N 59°39' E 024°30'10 9.8
2014-Nov-27 01:33N 59°40' E 024°10'9 8.6
2014-Nov-27 00:29N 59°37' E 023°53'9 9.3
2014-Nov-26 23:33N 59°35' E 023°37'345 9.6
2014-Nov-25 11:33N 55°41' E 015°42'8 8.3
2014-Nov-25 10:33N 55°37' E 015°29'8 8.3
2014-Nov-25 09:33N 55°33' E 015°16'8 8.3
2014-Nov-25 08:33N 55°30' E 015°03'1110.5
2014-Nov-25 07:33N 55°25' E 014°46'1313.2
2014-Nov-25 06:33N 55°16' E 014°29'1313.5
2014-Nov-25 05:33N 55°05' E 014°15'6913.7
2014-Nov-25 00:33N 54°38' E 012°25'1414.3
2014-Nov-24 23:33N 54°26' E 012°12'1414.2
2014-Nov-24 22:33N 54°25' E 011°48'3715.1
2014-Nov-24 20:07N 54°42' E 010°52'15912.7
2014-Nov-24 07:33N 57°20' E 011°29'1413.7
2014-Nov-24 06:33N 57°31' E 011°16'1515.0
2014-Nov-24 05:33N 57°41' E 010°55'1313.4
2014-Nov-24 04:33N 57°48' E 010°33'16514.8
2014-Nov-23 17:23N 55°48' E 007°04'1315.6
2014-Nov-23 16:32N 55°36' E 006°55'1515.1
2014-Nov-23 15:33N 55°22' E 006°49'1615.7
2014-Nov-23 14:33N 55°07' E 006°57'1615.7
2014-Nov-23 13:33N 54°52' E 007°04'1616.0
2014-Nov-23 12:34N 54°36' E 007°12'1615.7
2014-Nov-23 11:33N 54°23' E 007°26'1615.7
2014-Nov-23 10:33N 54°10' E 007°42'1514.8
2014-Nov-23 09:33N 54°02' E 008°02'1312.5
2014-Nov-23 08:33N 53°59' E 008°23'1313.4
2014-Nov-23 07:33N 53°53' E 008°43'1514.9
2014-Nov-23 06:33N 53°53' E 009°08'1515.2
2014-Nov-23 05:33N 53°43' E 009°28'1414.3
2014-Nov-23 04:33N 53°34' E 009°46'5 5.1
2014-Nov-23 03:28N 53°32' E 009°55'0 0.0
2014-Nov-23 02:31N 53°32' E 009°55'0 0.0
2014-Nov-23 01:31N 53°32' E 009°55'0 0.0
2014-Nov-23 00:31N 53°32' E 009°55'0 0.0
2014-Nov-22 23:31N 53°32' E 009°55'0 0.0
2014-Nov-22 22:28N 53°32' E 009°55'0 0.0
2014-Nov-22 21:28N 53°32' E 009°55'0 0.0
2014-Nov-22 20:28N 53°32' E 009°55'0 0.0
2014-Nov-22 19:31N 53°32' E 009°55'0 0.0
2014-Nov-22 18:31N 53°32' E 009°55'0 0.0
2014-Nov-22 17:31N 53°32' E 009°55'0 0.0
2014-Nov-22 16:31N 53°32' E 009°55'0 0.0
2014-Nov-22 15:31N 53°32' E 009°55'0 0.0
2014-Nov-22 14:31N 53°32' E 009°55'0 0.0
2014-Nov-22 13:31N 53°32' E 009°55'0 0.0
2014-Nov-22 12:28N 53°32' E 009°55'0 0.1
2014-Nov-22 11:34N 53°32' E 009°55'9 8.6
2014-Nov-22 10:34N 53°34' E 009°41'1514.5
2014-Nov-22 09:33N 53°45' E 009°25'1313.0
2014-Nov-22 08:33N 53°53' E 009°07'1313.2
2014-Nov-22 07:33N 53°51' E 008°45'1313.1
2014-Nov-22 06:33N 53°59' E 008°27'1413.8
2014-Nov-22 05:34N 54°00' E 008°03'4 3.9
2014-Nov-22 04:33N 54°02' E 008°09'0 0.0
2014-Nov-22 03:33N 54°02' E 008°09'0 0.0
2014-Nov-22 02:33N 54°02' E 008°09'0 0.0
2014-Nov-22 01:33N 54°02' E 008°09'0 0.0
2014-Nov-22 00:33N 54°02' E 008°09'0 0.0
2014-Nov-21 23:33N 54°02' E 008°09'0 0.0
2014-Nov-21 22:33N 54°02' E 008°09'0 0.1
2014-Nov-21 21:33N 54°02' E 008°09'0 0.1
2014-Nov-21 20:33N 54°02' E 008°09'0 0.0
2014-Nov-21 19:33N 54°02' E 008°09'2 1.6
2014-Nov-21 18:33N 54°02' E 008°07'1110.7
2014-Nov-21 17:33N 53°59' E 008°24'9 9.3
2014-Nov-21 16:33N 53°56' E 008°39'1111.2
2014-Nov-21 15:34N 53°59' E 008°21'8 8.0
2014-Nov-21 14:33N 54°02' E 008°08'0 0.4
2014-Nov-21 13:33N 54°02' E 008°09'0 0.0
2014-Nov-21 12:33N 54°02' E 008°09'1 0.8
2014-Nov-21 11:33N 54°02' E 008°07'9 9.0
2014-Nov-21 10:33N 53°58' E 007°54'1313.0
2014-Nov-21 09:33N 53°55' E 007°32'1313.3
2014-Nov-21 08:32N 53°52' E 007°10'1615.4
2014-Nov-21 07:30N 53°48' E 006°44'1516.0
2014-Nov-21 06:33N 53°44' E 006°19'1616.0
2014-Nov-21 05:34N 53°39' E 005°54'1616.2
2014-Nov-21 04:34N 53°34' E 005°28'1616.2
2014-Nov-21 03:33N 53°28' E 005°02'1615.9
2014-Nov-21 02:34N 53°20' E 004°39'1716.5
2014-Nov-21 01:34N 53°06' E 004°25'1616.1
2014-Nov-21 00:33N 52°52' E 004°13'1615.5
2014-Nov-20 23:34N 52°38' E 004°01'1514.9
2014-Nov-20 22:34N 52°24' E 003°53'1514.8
2014-Nov-20 21:34N 52°09' E 003°54'1010.3
2014-Nov-20 20:34N 51°60' E 004°02'3 2.5
2014-Nov-20 19:31N 51°58' E 004°03'0 0.0
2014-Nov-20 18:32N 51°58' E 004°03'0 0.0
2014-Nov-20 17:28N 51°58' E 004°03'0 0.0
2014-Nov-20 16:31N 51°58' E 004°03'0 0.0
2014-Nov-20 15:31N 51°58' E 004°03'0 0.0
2014-Nov-20 14:31N 51°58' E 004°03'0 0.0
2014-Nov-20 13:31N 51°58' E 004°03'0 0.0
2014-Nov-20 12:34N 51°58' E 004°03'0 0.2
2014-Nov-20 11:31N 51°58' E 004°03'0 0.0
2014-Nov-20 10:28N 51°58' E 004°03'0 0.0
2014-Nov-20 09:31N 51°58' E 004°03'0 0.0
2014-Nov-20 08:31N 51°58' E 004°03'0 0.0
2014-Nov-20 07:31N 51°58' E 004°03'0 0.0
2014-Nov-20 06:31N 51°58' E 004°03'0 0.0
2014-Nov-20 05:31N 51°58' E 004°03'0 0.0
2014-Nov-20 04:31N 51°58' E 004°03'0 0.0
2014-Nov-20 03:31N 51°58' E 004°03'0 0.0
2014-Nov-20 02:28N 51°58' E 004°03'0 0.0
2014-Nov-20 01:31N 51°58' E 004°03'0 0.0
2014-Nov-20 00:31N 51°58' E 004°03'0 0.0
2014-Nov-19 23:31N 51°58' E 004°03'0 0.0
2014-Nov-19 22:31N 51°58' E 004°03'0 0.0
2014-Nov-19 21:31N 51°58' E 004°03'0 0.0
2014-Nov-19 20:31N 51°58' E 004°03'0 0.0
2014-Nov-19 19:31N 51°58' E 004°03'0 0.0
2014-Nov-19 18:31N 51°58' E 004°03'0 0.0
2014-Nov-19 17:31N 51°58' E 004°03'0 0.0
2014-Nov-19 16:31N 51°58' E 004°03'0 0.0
2014-Nov-19 15:28N 51°58' E 004°03'0 0.0
2014-Nov-19 14:31N 51°58' E 004°03'0 0.0
2014-Nov-19 13:28N 51°58' E 004°03'0 0.0
2014-Nov-19 12:31N 51°58' E 004°03'0 0.0
2014-Nov-19 11:31N 51°58' E 004°03'0 0.0
2014-Nov-19 10:31N 51°58' E 004°03'0 0.0
2014-Nov-19 09:31N 51°58' E 004°03'0 0.0
2014-Nov-19 08:31N 51°58' E 004°03'0 0.0
2014-Nov-19 07:19N 51°58' E 004°03'0 0.0
2014-Nov-19 06:31N 51°58' E 004°03'0 0.0
2014-Nov-19 05:31N 51°58' E 004°03'0 0.0
2014-Nov-19 04:31N 51°58' E 004°03'0 0.0
2014-Nov-19 03:31N 51°58' E 004°03'0 0.0
2014-Nov-19 02:31N 51°58' E 004°03'0 0.0
2014-Nov-19 01:31N 51°58' E 004°03'0 0.0
2014-Nov-19 00:31N 51°58' E 004°03'0 0.0
2014-Nov-18 23:31N 51°58' E 004°03'0 0.0
2014-Nov-18 22:31N 51°58' E 004°03'  

Dump ship's entire track history